DW0126 Weather Reports


time (UTC)temp
F
wind
direction
speed
knots
gust
knots
rain 1hr
in
rain 24hr
in
rain mn
in
humidity
%
barometer
mb
20260503223717 84 0 4.3 7.0 0.00 0.00 0.00 34 1009.6
20260503222717 84 0 4.3 7.8 0.00 0.00 0.00 34 1009.8
20260503221717 83 23 3.5 5.2 0.00 0.00 0.00 36 1009.9
20260503220737 83 45 4.3 6.1 0.00 0.00 0.00 37 1010.0
20260503215737 83 45 5.2 7.8 0.00 0.00 0.00 38 1010.0
20260503214717 82 23 3.5 7.0 0.00 0.00 0.00 39 1010.2
20260503213757 82 0 3.5 7.8 0.00 0.00 0.00 38 1010.3
20260503212737 82 23 3.5 6.1 0.00 0.00 0.00 39 1010.3
20260503211717 82 45 4.3 6.1 0.00 0.00 0.00 39 1010.5
20260503210717 82 45 3.5 7.0 0.00 0.00 0.00 40 1010.6
20260503205717 82 23 2.6 7.8 0.00 0.00 0.00 40 1010.7
20260503204717 81 45 5.2 9.6 0.00 0.00 0.00 41 1010.7
20260503203717 80 23 3.5 5.2 0.00 0.00 0.00 41 1010.8
20260503202757 81 0 4.3 7.0 0.00 0.00 0.00 40 1011.0
20260503201717 81 0 4.3 7.8 0.00 0.00 0.00 42 1011.1
20260503200737 81 23 4.3 6.1 0.00 0.00 0.00 42 1011.2
20260503195717 81 23 3.5 6.1 0.00 0.00 0.00 44 1011.4
20260503194717 80 68 2.6 6.1 0.00 0.00 0.00 44 1011.6
20260503193717 80 45 3.5 6.1 0.00 0.00 0.00 44 1011.7
20260503192717 79 23 3.5 5.2 0.00 0.00 0.00 45 1011.7
20260503191717 79 0 4.3 6.1 0.00 0.00 0.00 45 1012.0
20260503190737 78 0 3.5 7.0 0.00 0.00 0.00 46 1012.0
20260503185717 78 23 5.2 8.7 0.00 0.00 0.00 46 1012.1
20260503184717 77 45 5.2 8.7 0.00 0.00 0.00 46 1012.2
20260503183717 77 0 5.2 7.8 0.00 0.00 0.00 46 1012.3
20260503182717 77 23 5.2 8.7 0.00 0.00 0.00 46 1012.5
20260503181717 76 45 3.5 6.1 0.00 0.00 0.00 47 1012.4
20260503180717 76 45 4.3 8.7 0.00 0.00 0.00 48 1012.5
20260503175717 75 0 5.2 7.8 0.00 0.00 0.00 49 1012.6
20260503174717 75 0 3.5 6.1 0.00 0.00 0.00 51 1012.5
20260503173717 73 23 2.6 5.2 0.00 0.00 0.00 53 1012.5
20260503172717 73 45 3.5 7.0 0.00 0.00 0.00 52 1012.7
20260503171737 72 45 5.2 8.7 0.00 0.00 0.00 53 1012.7
20260503170737 72 23 5.2 8.7 0.00 0.00 0.00 53 1012.7
20260503150737 61 68 1.7 3.5 0.00 0.00 0.00 79 1013.2
20260503130717 52 45 2.6 2.6 0.00 0.00 0.00 90 1012.7
20260503110717 53 23 1.7 1.7 0.00 0.00 0.00 87 1013.1
20260503080716 59 0.0 0.9 0.00 0.00 0.00 74 1013.3
20260503072737 60 0.0 0.0 0.00 0.00 0.00 73 1013.3
20260503071737 61 0.0 0.0 0.00 0.00 0.00 71 1013.3
20260503070717 61 0.0 0.9 0.00 0.00 0.00 69 1013.3
20260503054715 64 45 0.9 3.5 0.00 0.00 0.00 64 1013.1
20260503052715 63 68 0.9 1.7 0.00 0.00 0.00 65 1013.2
20260503051736 64 68 0.9 2.6 0.00 0.00 0.00 66 1013.0
20260503050715 64 68 1.7 2.6 0.00 0.00 0.00 66 1012.9
20260503045715 64 90 1.7 2.6 0.00 0.00 0.00 65 1012.9
20260503044715 64 68 1.7 3.5 0.00 0.00 0.00 64 1012.7
20260503043715 65 68 1.7 5.2 0.00 0.00 0.00 62 1012.6
20260503042715 66 90 1.7 3.5 0.00 0.00 0.00 60 1012.5
20260503041735 67 68 4.3 7.0 0.00 0.00 0.00 58 1012.5
20260503040736 69 68 0.9 2.6 0.00 0.00 0.00 54 1012.3
20260503035716 69 45 1.7 2.6 0.00 0.00 0.00 52 1012.1
20260503034716 70 45 2.6 3.5 0.00 0.00 0.00 51 1012.0
20260503033715 70 45 3.5 5.2 0.00 0.00 0.00 50 1011.9
20260503032716 71 23 3.5 5.2 0.00 0.00 0.00 49 1011.8
20260503031716 72 23 3.5 6.1 0.00 0.00 0.00 48 1011.8
20260503030735 73 23 3.5 5.2 0.00 0.00 0.00 46 1011.6
20260503025715 73 45 3.5 4.3 0.00 0.00 0.00 45 1011.5
20260503024715 74 45 2.6 5.2 0.00 0.00 0.00 44 1011.5
20260503023735 74 45 5.2 7.0 0.00 0.00 0.00 44 1011.5
20260503022715 74 45 4.3 8.7 0.00 0.00 0.00 45 1011.4
20260503021715 75 45 5.2 7.8 0.00 0.00 0.00 44 1011.4
20260503020715 75 45 3.5 6.1 0.00 0.00 0.00 43 1011.3
20260503015716 75 45 5.2 7.0 0.00 0.00 0.00 42 1011.4
20260503014715 76 45 2.6 6.1 0.00 0.00 0.00 43 1011.5
20260503013718 76 45 3.5 6.1 0.00 0.00 0.00 42 1011.4
20260503012715 76 45 4.3 6.1 0.00 0.00 0.00 42 1011.5
20260503011715 76 23 3.5 5.2 0.00 0.00 0.00 42 1011.6
20260503010715 76 45 5.2 7.0 0.00 0.00 0.00 41 1011.5
20260503005716 76 23 4.3 10.4 0.00 0.00 0.00 42 1011.6
20260503004715 77 45 4.3 6.1 0.00 0.00 0.00 42 1011.7
20260503003735 76 23 3.5 6.1 0.00 0.00 0.00 43 1011.7
20260503002735 77 23 4.3 8.7 0.00 0.00 0.00 45 1011.7
20260503001715 76 23 4.3 7.0 0.00 0.00 0.00 45 1011.7
20260503000715 76 45 3.5 6.1 0.00 0.00 0.00 45 1011.7
20260502235715 76 23 3.5 7.8 0.00 0.00 0.00 45 1011.8
20260502234735 75 23 4.3 7.8 0.00 0.00 0.00 46 1012.0
20260502233715 76 45 7.0 8.7 0.00 0.00 0.00 45 1012.2
20260502232756 76 23 3.5 6.1 0.00 0.00 0.00 46 1012.3
20260502231715 77 0 4.3 7.8 0.00 0.00 0.00 47 1012.4
20260502230755 76 45 5.2 8.7 0.00 0.00 0.00 48 1012.5
20260502225755 77 23 4.3 7.8 0.00 0.00 0.00 47 1012.7
20260502224715 76 23 3.5 6.1 0.00 0.00 0.00 49 1012.8